Regional Weather Roundup
Issued by NWS

Home | Current Version | Previous Version | Graphics & Text | Print | Product List | Glossary On
Versions: 1 2 3 4 5 6 7 8 9 10 11 12 13 14 15 16 17 18 19 20 21 22 23 24 25 26 27 28 29 30 31 32 33 34 35 36 37 38 39 40 41 42 43 44 45 46 47 48 49 50
000
ASUS45 KABQ 201001
RWRNM
NEW MEXICO REGIONAL WEATHER ROUNDUP
NATIONAL WEATHER SERVICE ALBUQUERQUE NM
400 AM MDT FRI APR 20 2018

NOTE: "FAIR" MEANS FEW OR NO CLOUDS BELOW 12,000 FEET AGL WITH NO
       SIGNIFICANT WEATHER OR OBSTRUCTIONS TO VISION.

      THIS PRODUCT IS RELEASED AS TWO VERSIONS.  ONE VERSION NEAR
      THE TOP OF THE HOUR CONTAINING PRELIMINARY DATA FROM ALBUQUERQUE
      AND OTHER STATIONS.  A FINAL VERSION WITH ADDITIONAL DATA IS
      ISSUED ABOUT 10 MINUTES AFTER THE HOUR.

NMZ501-503-504-510>518-201100-
NORTHWEST PLATEAU/NORTHCENTRAL MOUNTAINS

CITY           SKY/WX    TMP DP  RH WIND       PRES   REMARKS
FARMINGTON     FAIR      47  13  25 SW6       29.84S
LOS ALAMOS     CLOUDY    46  25  43 SE15G26   29.97F
SANTA FE       CLOUDY    49  26  41 SE36G47   29.91F
TAOS           CLOUDY    48  26  42 S30G37    29.94F
ANGEL FIRE     CLOUDY    38  19  46 S18G33    30.03F WCI  28

$$
NMZ402-403-502-505>509-201100-
WESTCENTRAL MOUNTAINS/SOUTHWEST MOUNTAINS

CITY           SKY/WX    TMP DP  RH WIND       PRES   REMARKS
GALLUP         MOCLDY    41  15  35 SW10      29.91S
GRANTS         FAIR      43  11  28 NW8G22    29.93R
SILVER CITY    FAIR      47   7  19 N9        29.92R

$$
NMZ407-409-411-412-201100-
SOUTHERN DESERTS

CITY           SKY/WX    TMP DP  RH WIND       PRES   REMARKS
DEMING         FAIR      58  33  39 SW9       29.87S
LAS CRUCES     FAIR      59  40  50 SE10      29.90S
ALAMOGORDO     FAIR      66  43  42 S26G36    29.85S
T OR C         FAIR      62  38  40 S20G30    29.83F

$$
NMZ519>523-201100-
CENTRAL VALLEYS/CENTRAL HIGHLANDS

CITY           SKY/WX    TMP DP  RH WIND       PRES   REMARKS
ALBUQUERQUE    MOCLDY    58  35  42 SE17      29.84F
DOUBLE EAGLE   FAIR      54  34  46 SE14      29.85F
MORIARTY ARPT  FAIR      49  39  67 SE14G22   29.96F
CLINES CORNERS MOCLDY    44  28  53 SE24G39   30.00F
BELEN          FAIR      55  34  44 SE16G25   29.83S
SOCORRO        FAIR      57  35  42 S17G23    29.81S

$$
NMZ524>526-539-540-201100-
SOUTHCENTRAL MOUNTAINS

CITY           SKY/WX    TMP DP  RH WIND       PRES   REMARKS
RUIDOSO        FAIR      41  36  81 SE13      30.03F

$$
NMZ527>531-201100-
NORTHEAST HIGHLANDS/NORTHEAST PLAINS

CITY           SKY/WX    TMP DP  RH WIND       PRES   REMARKS
LAS VEGAS      CLOUDY    44  20  38 S14       30.06F
RATON          CLOUDY    44  21  40 S22G28    30.03F
CLAYTON        CLOUDY    46  27  47 S24G33    30.08F

$$
NMZ532>537-201100-
EASTCENTRAL PLAINS

CITY           SKY/WX    TMP DP  RH WIND       PRES   REMARKS
SANTA ROSA     CLOUDY    52  23  32 SE18G29   30.00S
TUCUMCARI      CLOUDY    54  27  35 SE15      30.02F
CANNON AFB     NOT AVBL
CLOVIS AIRPORT CLOUDY    51  27  39 SE18G25   30.08F

$$
NMZ028-029-538-201100-
SOUTHEAST PLAINS

CITY           SKY/WX    TMP DP  RH WIND       PRES   REMARKS
ROSWELL        FAIR      57  37  47 S17       29.97F
ARTESIA        FAIR      57  36  44 SE18      29.98F
CARLSBAD       FAIR      56  36  47 S10       29.98F
HOBBS          CLOUDY    54  28  37 SE12      30.04S


$$




USA.gov is the U.S. government's official web portal to all federal, state and local government web resources and services.